BHS881 KBGR-CYYT

Flight info

Callsign BHS881
Flight time N/A
Altitude 25000
Route YYG DCT UMETI
Aircraft DH8C/M-SDFGR/S

Departure

Time 2026-04-25 20:52
Airport Bangor International Airport (KBGR)

Arrival

Time N/A
Airport St. John's International Airport (CYYT)
Time Latitude Longitude Altitude Speed Heading
2026-04-25 20:40 44.81098 -68.81737 158 ft 0 kts 316°
2026-04-25 20:44 44.81102 -68.81742 158 ft 2 kts 316°
2026-04-25 20:44 44.81095 -68.81776 159 ft 7 kts 225°
2026-04-25 20:44 44.81045 -68.81850 159 ft 12 kts 226°
2026-04-25 20:45 44.80973 -68.81955 161 ft 17 kts 226°
2026-04-25 20:45 44.80882 -68.82089 162 ft 20 kts 226°
2026-04-25 20:45 44.80822 -68.82248 164 ft 15 kts 259°
2026-04-25 20:45 44.80751 -68.82244 163 ft 13 kts 134°
2026-04-25 20:46 44.80683 -68.82146 160 ft 14 kts 134°
2026-04-25 20:46 44.80613 -68.82046 158 ft 14 kts 134°
2026-04-25 20:46 44.80543 -68.81944 156 ft 14 kts 134°
2026-04-25 20:46 44.80476 -68.81847 155 ft 13 kts 135°
2026-04-25 20:47 44.80413 -68.81756 154 ft 12 kts 133°
2026-04-25 20:47 44.80347 -68.81662 154 ft 16 kts 134°
2026-04-25 20:47 44.80256 -68.81531 153 ft 20 kts 134°
2026-04-25 20:47 44.80150 -68.81377 154 ft 23 kts 135°
2026-04-25 20:48 44.80050 -68.81232 155 ft 18 kts 134°
2026-04-25 20:48 44.79956 -68.81097 156 ft 20 kts 134°
2026-04-25 20:48 44.79852 -68.80998 157 ft 14 kts 188°
2026-04-25 20:48 44.79773 -68.81089 157 ft 14 kts 226°
2026-04-25 20:49 44.79738 -68.81141 158 ft 3 kts 228°
2026-04-25 20:49 44.79717 -68.81202 158 ft 10 kts 258°
2026-04-25 20:49 44.79724 -68.81332 158 ft 12 kts 296°
2026-04-25 20:49 44.79755 -68.81383 158 ft 0 kts 315°
2026-04-25 20:51 44.79762 -68.81392 158 ft 4 kts 315°
2026-04-25 20:51 44.79901 -68.81591 157 ft 71 kts 314°
2026-04-25 20:51 44.80431 -68.82355 225 ft 131 kts 317°
2026-04-25 20:52 44.81126 -68.83326 654 ft 153 kts 318°
2026-04-25 20:52 44.81647 -68.84020 1019 ft 162 kts 320°
2026-04-25 20:52 44.82844 -68.85582 1594 ft 190 kts 320°
2026-04-25 20:52 44.83865 -68.86793 2063 ft 194 kts 333°
2026-04-25 20:53 44.85154 -68.86987 2442 ft 191 kts 19°
2026-04-25 20:53 44.86167 -68.85855 2888 ft 192 kts 51°
2026-04-25 20:53 44.86993 -68.84331 3341 ft 200 kts 54°
2026-04-25 20:53 44.87843 -68.82729 3784 ft 207 kts 54°
2026-04-25 20:54 44.88730 -68.81077 4223 ft 214 kts 54°
2026-04-25 20:54 44.89626 -68.79369 4655 ft 218 kts 59°
2026-04-25 20:54 44.90288 -68.77456 5085 ft 221 kts 68°
2026-04-25 20:54 44.90871 -68.75447 5513 ft 224 kts 70°
2026-04-25 20:55 44.91445 -68.73380 5944 ft 226 kts 71°
2026-04-25 20:55 44.92022 -68.71298 6372 ft 229 kts 71°
2026-04-25 20:55 44.92607 -68.69185 6801 ft 231 kts 72°
2026-04-25 20:55 44.93196 -68.67057 7229 ft 233 kts 72°
2026-04-25 20:56 44.93785 -68.64928 7668 ft 234 kts 73°
2026-04-25 20:56 44.94343 -68.62911 8114 ft 234 kts 74°
2026-04-25 20:56 44.94935 -68.60770 8586 ft 235 kts 75°
2026-04-25 20:56 44.95531 -68.58599 9063 ft 237 kts 75°
2026-04-25 20:57 44.96125 -68.56437 9535 ft 238 kts 76°
2026-04-25 20:57 44.96725 -68.54261 10006 ft 241 kts 76°
2026-04-25 20:57 44.97333 -68.52048 10482 ft 243 kts 77°
2026-04-25 20:57 44.97953 -68.49792 10961 ft 247 kts 77°
2026-04-25 20:58 44.98576 -68.47518 11439 ft 250 kts 78°
2026-04-25 20:58 44.99209 -68.45211 11916 ft 254 kts 78°
2026-04-25 20:58 44.99847 -68.42879 12397 ft 258 kts 78°
2026-04-25 20:58 45.00496 -68.40508 12884 ft 261 kts 78°
2026-04-25 20:59 45.01162 -68.38075 13377 ft 265 kts 78°
2026-04-25 20:59 45.01823 -68.35657 13862 ft 267 kts 78°
2026-04-25 20:59 45.02501 -68.33173 14354 ft 270 kts 79°
2026-04-25 20:59 45.03182 -68.30679 14842 ft 273 kts 79°
2026-04-25 21:00 45.03866 -68.28165 15330 ft 276 kts 79°
2026-04-25 21:00 45.04098 -68.27314 15493 ft 276 kts 79°
2026-04-25 21:00 45.05953 -68.20479 16792 ft 283 kts 79°
2026-04-25 21:01 45.06649 -68.17908 17273 ft 285 kts 79°
2026-04-25 21:01 45.07362 -68.15274 17763 ft 287 kts 79°
2026-04-25 21:01 45.08075 -68.12637 18250 ft 289 kts 79°
2026-04-25 21:01 45.08790 -68.09995 18734 ft 291 kts 79°
2026-04-25 21:02 45.09515 -68.07310 19223 ft 293 kts 79°
2026-04-25 21:02 45.10245 -68.04603 19707 ft 295 kts 79°
2026-04-25 21:02 45.10972 -68.01905 20168 ft 297 kts 79°
2026-04-25 21:02 45.11713 -67.99152 20636 ft 299 kts 79°
2026-04-25 21:03 45.12450 -67.96414 21099 ft 300 kts 79°
2026-04-25 21:03 45.13196 -67.93635 21567 ft 302 kts 79°
2026-04-25 21:03 45.13944 -67.90845 22035 ft 304 kts 79°
2026-04-25 21:03 45.14688 -67.88067 22498 ft 305 kts 79°
2026-04-25 21:04 45.15436 -67.85274 22960 ft 306 kts 79°
2026-04-25 21:04 45.16196 -67.82434 23429 ft 306 kts 79°
2026-04-25 21:04 45.16950 -67.79612 23893 ft 306 kts 79°
2026-04-25 21:04 45.17699 -67.76807 24355 ft 305 kts 79°
2026-04-25 21:05 45.18442 -67.74021 24813 ft 305 kts 79°
2026-04-25 21:05 45.19190 -67.71192 25028 ft 313 kts 79°
2026-04-25 21:05 45.19975 -67.68203 25031 ft 328 kts 79°
2026-04-25 21:05 45.20794 -67.65102 25029 ft 341 kts 78°
2026-04-25 21:06 45.21641 -67.61915 25025 ft 349 kts 78°
2026-04-25 21:06 45.22509 -67.58672 25012 ft 347 kts 78°
2026-04-25 21:06 45.23359 -67.55472 25012 ft 344 kts 78°
2026-04-25 21:06 45.23911 -67.53384 25013 ft 343 kts 78°
2026-04-25 21:07 45.25025 -67.49160 25013 ft 340 kts 78°
2026-04-25 21:07 45.25847 -67.46035 25014 ft 339 kts 78°
2026-04-25 21:07 45.26674 -67.42889 25014 ft 338 kts 78°
2026-04-25 21:07 45.27493 -67.39766 25013 ft 337 kts 78°
2026-04-25 21:08 45.28302 -67.36680 25011 ft 337 kts 78°
2026-04-25 21:08 45.29120 -67.33556 25008 ft 336 kts 79°
2026-04-25 21:08 45.29936 -67.30435 25004 ft 335 kts 79°
2026-04-25 21:08 45.30737 -67.27369 25002 ft 335 kts 79°
2026-04-25 21:09 45.32360 -67.21140 24998 ft 334 kts 79°
2026-04-25 21:09 45.33159 -67.18069 24997 ft 333 kts 79°
2026-04-25 21:09 45.33968 -67.14947 24998 ft 333 kts 79°
2026-04-25 21:10 45.34766 -67.11865 24998 ft 332 kts 79°
2026-04-25 21:10 45.35561 -67.08792 24997 ft 331 kts 78°
2026-04-25 21:10 45.36347 -67.05756 24998 ft 331 kts 78°
2026-04-25 21:10 45.37137 -67.02699 24998 ft 330 kts 78°
2026-04-25 21:11 45.37932 -66.99616 24998 ft 329 kts 77°
2026-04-25 21:11 45.38717 -66.96572 24998 ft 327 kts 77°
2026-04-25 21:11 45.39496 -66.93549 24997 ft 327 kts 77°
2026-04-25 21:11 45.40279 -66.90509 24997 ft 326 kts 77°
2026-04-25 21:12 45.41051 -66.87505 24998 ft 325 kts 77°
2026-04-25 21:12 45.41831 -66.84465 24998 ft 325 kts 77°
2026-04-25 21:12 45.42608 -66.81428 24998 ft 324 kts 77°
2026-04-25 21:12 45.43116 -66.79443 24999 ft 324 kts 77°
2026-04-25 21:13 45.44149 -66.75403 24999 ft 324 kts 77°
2026-04-25 21:13 45.44906 -66.72431 24998 ft 323 kts 77°
2026-04-25 21:13 45.45680 -66.69392 24999 ft 323 kts 77°
2026-04-25 21:13 45.46438 -66.66412 24999 ft 323 kts 77°
2026-04-25 21:14 45.47200 -66.63414 24999 ft 322 kts 77°
2026-04-25 21:14 45.47963 -66.60406 24999 ft 322 kts 77°
2026-04-25 21:14 45.48719 -66.57422 24998 ft 322 kts 77°
2026-04-25 21:14 45.49479 -66.54417 25000 ft 322 kts 77°
2026-04-25 21:15 45.50236 -66.51423 25000 ft 322 kts 77°
2026-04-25 21:15 45.50991 -66.48433 25000 ft 322 kts 77°
2026-04-25 21:15 45.51753 -66.45411 25001 ft 322 kts 77°
2026-04-25 21:15 45.52511 -66.42401 25000 ft 322 kts 77°
2026-04-25 21:16 45.53261 -66.39417 25001 ft 322 kts 77°
2026-04-25 21:16 45.54010 -66.36431 25000 ft 322 kts 77°
2026-04-25 21:16 45.54766 -66.33421 25000 ft 322 kts 78°
2026-04-25 21:16 45.55525 -66.30389 25000 ft 322 kts 78°
2026-04-25 21:17 45.56252 -66.27480 25000 ft 322 kts 78°
2026-04-25 21:17 45.57022 -66.24399 24999 ft 322 kts 78°
2026-04-25 21:17 45.57771 -66.21396 25000 ft 322 kts 78°
2026-04-25 21:17 45.58527 -66.18360 25000 ft 322 kts 78°
2026-04-25 21:18 45.59275 -66.15356 25000 ft 322 kts 78°
2026-04-25 21:18 45.60018 -66.12367 25001 ft 321 kts 78°
2026-04-25 21:18 45.60764 -66.09355 25000 ft 322 kts 78°
2026-04-25 21:18 45.61509 -66.06353 25002 ft 321 kts 78°
2026-04-25 21:19 45.62252 -66.03348 25001 ft 321 kts 78°
2026-04-25 21:19 45.62996 -66.00335 25000 ft 322 kts 78°
2026-04-25 21:19 45.63736 -65.97341 25001 ft 322 kts 78°
2026-04-25 21:19 45.64478 -65.94328 25001 ft 322 kts 78°
2026-04-25 21:20 45.65228 -65.91282 25001 ft 322 kts 78°
2026-04-25 21:20 45.65476 -65.90274 25001 ft 322 kts 78°
2026-04-25 21:20 45.66703 -65.85278 25002 ft 322 kts 78°
2026-04-25 21:20 45.67449 -65.82236 25002 ft 322 kts 78°
2026-04-25 21:21 45.68184 -65.79235 25002 ft 322 kts 78°
2026-04-25 21:21 45.68924 -65.76208 25002 ft 322 kts 78°
2026-04-25 21:21 45.69660 -65.73193 25002 ft 322 kts 78°
2026-04-25 21:21 45.70391 -65.70195 25002 ft 322 kts 78°
2026-04-25 21:22 45.71125 -65.67183 25002 ft 322 kts 78°
2026-04-25 21:22 45.71870 -65.64118 25003 ft 322 kts 78°
2026-04-25 21:22 45.72602 -65.61106 25003 ft 322 kts 78°
2026-04-25 21:22 45.73330 -65.58104 25003 ft 322 kts 78°
2026-04-25 21:23 45.74067 -65.55059 25002 ft 322 kts 78°
2026-04-25 21:23 45.74799 -65.52036 25004 ft 322 kts 78°
2026-04-25 21:23 45.75530 -65.49009 25004 ft 322 kts 78°
2026-04-25 21:23 45.76266 -65.45959 25008 ft 322 kts 78°
2026-04-25 21:24 45.77000 -65.42911 25012 ft 322 kts 78°
2026-04-25 21:24 45.77729 -65.39884 25016 ft 322 kts 78°
2026-04-25 21:24 45.78458 -65.36847 25019 ft 322 kts 78°
2026-04-25 21:24 45.79185 -65.33814 25022 ft 322 kts 79°
2026-04-25 21:25 45.79915 -65.30773 25025 ft 322 kts 79°
2026-04-25 21:25 45.80644 -65.27727 25028 ft 322 kts 79°
2026-04-25 21:25 45.81364 -65.24709 25030 ft 322 kts 79°
2026-04-25 21:25 45.82081 -65.21707 25031 ft 322 kts 79°
2026-04-25 21:26 45.82812 -65.18639 25031 ft 322 kts 79°
2026-04-25 21:26 45.83530 -65.15624 25030 ft 322 kts 79°
2026-04-25 21:26 45.84254 -65.12574 25031 ft 322 kts 79°
2026-04-25 21:26 45.84974 -65.09538 25030 ft 322 kts 79°
2026-04-25 21:27 45.85697 -65.06490 25032 ft 322 kts 79°
2026-04-25 21:27 45.86409 -65.03482 25031 ft 322 kts 79°
2026-04-25 21:27 45.87133 -65.00412 25031 ft 322 kts 78°
2026-04-25 21:27 45.87851 -64.97361 25030 ft 322 kts 78°
2026-04-25 21:28 45.88562 -64.94345 25031 ft 323 kts 78°
2026-04-25 21:28 45.89281 -64.91287 25031 ft 323 kts 78°
2026-04-25 21:28 45.90000 -64.88232 25031 ft 323 kts 77°
2026-04-25 21:28 45.90714 -64.85188 25031 ft 323 kts 77°
2026-04-25 21:29 45.91433 -64.82121 25031 ft 323 kts 77°
2026-04-25 21:29 45.92152 -64.79051 25031 ft 323 kts 77°
2026-04-25 21:29 45.92847 -64.76077 25031 ft 323 kts 77°
2026-04-25 21:29 45.93577 -64.72960 25031 ft 323 kts 77°
2026-04-25 21:30 45.94291 -64.69898 25031 ft 323 kts 77°
2026-04-25 21:30 45.95009 -64.66811 25032 ft 324 kts 77°
2026-04-25 21:30 45.95715 -64.63778 25032 ft 324 kts 77°
2026-04-25 21:30 45.96193 -64.61718 25031 ft 324 kts 77°
2026-04-25 21:31 45.97138 -64.57642 25032 ft 324 kts 77°
2026-04-25 21:31 45.97852 -64.54558 25032 ft 324 kts 77°
2026-04-25 21:31 45.98562 -64.51482 25032 ft 324 kts 77°
2026-04-25 21:31 45.99268 -64.48422 25032 ft 324 kts 77°
2026-04-25 21:32 45.99971 -64.45373 25032 ft 324 kts 77°
2026-04-25 21:32 46.00677 -64.42306 25032 ft 324 kts 77°
2026-04-25 21:32 46.01384 -64.39230 25033 ft 324 kts 77°
2026-04-25 21:32 46.02092 -64.36142 25033 ft 324 kts 77°
2026-04-25 21:33 46.02800 -64.33057 25032 ft 324 kts 77°
2026-04-25 21:33 46.03508 -64.29963 25031 ft 324 kts 77°
2026-04-25 21:33 46.04213 -64.26878 25031 ft 324 kts 77°
2026-04-25 21:33 46.04911 -64.23816 25031 ft 324 kts 77°
2026-04-25 21:34 46.05615 -64.20725 25031 ft 324 kts 77°
2026-04-25 21:34 46.06319 -64.17629 25031 ft 324 kts 77°
2026-04-25 21:34 46.07018 -64.14557 25032 ft 324 kts 77°
2026-04-25 21:34 46.07715 -64.11484 25032 ft 324 kts 77°
2026-04-25 21:35 46.08415 -64.08392 25032 ft 324 kts 77°
2026-04-25 21:35 46.09112 -64.05312 25030 ft 324 kts 77°
2026-04-25 21:35 46.09803 -64.02250 25027 ft 324 kts 77°
2026-04-25 21:35 46.10504 -63.99143 25013 ft 324 kts 77°
2026-04-25 21:36 46.11196 -63.96072 25008 ft 324 kts 77°
2026-04-25 21:36 46.11891 -63.92983 25003 ft 323 kts 77°
2026-04-25 21:36 46.12578 -63.89925 24999 ft 323 kts 77°
2026-04-25 21:36 46.13267 -63.86852 24995 ft 323 kts 77°
2026-04-25 21:37 46.13958 -63.83768 24990 ft 323 kts 77°
2026-04-25 21:37 46.14415 -63.81722 24987 ft 323 kts 77°
2026-04-25 21:37 46.15333 -63.77610 24987 ft 322 kts 77°
2026-04-25 21:37 46.16018 -63.74537 24987 ft 322 kts 77°
2026-04-25 21:38 46.16707 -63.71447 24988 ft 322 kts 77°
2026-04-25 21:38 46.17393 -63.68363 24988 ft 322 kts 77°
2026-04-25 21:38 46.18077 -63.65279 24988 ft 322 kts 77°
2026-04-25 21:38 46.18750 -63.62244 24988 ft 322 kts 77°
2026-04-25 21:39 46.19437 -63.59135 24988 ft 322 kts 77°
2026-04-25 21:39 46.20116 -63.56064 24989 ft 322 kts 77°
2026-04-25 21:39 46.20791 -63.53006 24988 ft 322 kts 77°
2026-04-25 21:39 46.21464 -63.49952 24989 ft 322 kts 77°
2026-04-25 21:40 46.22150 -63.46836 24989 ft 322 kts 77°
2026-04-25 21:40 46.22824 -63.43771 24989 ft 322 kts 77°
2026-04-25 21:40 46.23499 -63.40694 24989 ft 322 kts 77°
2026-04-25 21:40 46.24173 -63.37615 24989 ft 322 kts 77°
2026-04-25 21:41 46.24810 -63.34705 24989 ft 322 kts 78°
2026-04-25 21:41 46.25485 -63.31619 24987 ft 322 kts 78°
2026-04-25 21:41 46.26107 -63.28766 24988 ft 321 kts 78°
2026-04-25 21:41 46.26772 -63.25709 24987 ft 321 kts 78°
2026-04-25 21:42 46.27445 -63.22618 24988 ft 321 kts 78°
2026-04-25 21:42 46.28111 -63.19551 24988 ft 321 kts 78°
2026-04-25 21:42 46.28785 -63.16440 24988 ft 321 kts 78°
2026-04-25 21:42 46.29525 -63.13408 24965 ft 326 kts 69°
2026-04-25 21:43 46.30470 -63.10444 24995 ft 324 kts 72°
2026-04-25 21:43 46.31417 -63.07447 24987 ft 325 kts 69°
2026-04-25 21:43 46.32411 -63.04539 24989 ft 326 kts 67°
2026-04-25 21:43 46.33436 -63.01628 24989 ft 326 kts 66°
2026-04-25 21:44 46.34468 -62.98722 24989 ft 326 kts 66°
2026-04-25 21:44 46.35515 -62.95779 24990 ft 326 kts 66°
2026-04-25 21:44 46.37571 -62.89983 24990 ft 325 kts 65°
2026-04-25 21:45 46.38606 -62.87058 24990 ft 325 kts 65°
2026-04-25 21:45 46.39299 -62.85104 24990 ft 325 kts 65°
2026-04-25 21:45 46.40671 -62.81223 24990 ft 325 kts 65°
2026-04-25 21:45 46.41700 -62.78311 24990 ft 325 kts 65°
2026-04-25 21:46 46.42726 -62.75399 24990 ft 324 kts 65°
2026-04-25 21:46 46.43755 -62.72479 24990 ft 324 kts 65°
2026-04-25 21:46 46.44766 -62.69604 24991 ft 324 kts 65°
2026-04-25 21:46 46.45797 -62.66671 24991 ft 324 kts 65°
2026-04-25 21:47 46.46814 -62.63772 24991 ft 324 kts 65°
2026-04-25 21:47 46.47837 -62.60854 24991 ft 324 kts 65°
2026-04-25 21:47 46.48845 -62.57976 24991 ft 324 kts 65°
2026-04-25 21:47 46.49860 -62.55076 24991 ft 324 kts 65°
2026-04-25 21:48 46.50882 -62.52150 24991 ft 324 kts 65°
2026-04-25 21:48 46.51904 -62.49222 24992 ft 324 kts 65°
2026-04-25 21:48 46.52918 -62.46315 24992 ft 324 kts 65°
2026-04-25 21:48 46.53934 -62.43396 24992 ft 324 kts 65°
2026-04-25 21:49 46.54949 -62.40479 24992 ft 324 kts 65°
2026-04-25 21:49 46.55970 -62.37541 24989 ft 324 kts 65°
2026-04-25 21:49 46.56979 -62.34634 24981 ft 325 kts 66°
2026-04-25 21:49 46.57998 -62.31699 24970 ft 325 kts 66°
2026-04-25 21:50 46.59012 -62.28768 24961 ft 325 kts 66°
2026-04-25 21:50 46.60029 -62.25829 24952 ft 325 kts 66°
2026-04-25 21:50 46.61040 -62.22904 24943 ft 325 kts 66°
2026-04-25 21:50 46.61726 -62.20919 24938 ft 325 kts 66°
2026-04-25 21:51 46.63076 -62.17002 24925 ft 325 kts 66°
2026-04-25 21:51 46.64088 -62.14065 24918 ft 325 kts 66°
2026-04-25 21:51 46.65092 -62.11147 24917 ft 325 kts 66°
2026-04-25 21:51 46.66104 -62.08204 24918 ft 325 kts 66°
2026-04-25 21:52 46.67120 -62.05242 24918 ft 325 kts 66°
2026-04-25 21:52 46.68115 -62.02340 24918 ft 325 kts 66°
2026-04-25 21:52 46.69125 -61.99394 24918 ft 325 kts 66°
2026-04-25 21:52 46.70132 -61.96449 24918 ft 325 kts 66°
2026-04-25 21:53 46.71144 -61.93488 24919 ft 324 kts 66°
2026-04-25 21:53 46.72147 -61.90551 24918 ft 324 kts 66°
2026-04-25 21:53 46.73150 -61.87607 24919 ft 324 kts 66°
2026-04-25 21:53 46.74143 -61.84694 24919 ft 324 kts 66°
2026-04-25 21:54 46.75149 -61.81737 24919 ft 324 kts 66°
2026-04-25 21:54 46.76141 -61.78817 24919 ft 324 kts 66°
2026-04-25 21:54 46.77150 -61.75845 24919 ft 324 kts 66°
2026-04-25 21:54 46.78150 -61.72895 24919 ft 324 kts 66°
2026-04-25 21:55 46.79150 -61.69942 24920 ft 324 kts 66°
2026-04-25 21:55 46.80134 -61.67034 24919 ft 324 kts 66°
2026-04-25 21:55 46.81132 -61.64080 24920 ft 325 kts 66°
2026-04-25 21:55 46.82135 -61.61111 24920 ft 325 kts 66°
2026-04-25 21:56 46.83125 -61.58172 24920 ft 325 kts 66°
2026-04-25 21:56 46.83796 -61.56181 24920 ft 325 kts 66°
2026-04-25 21:56 46.85123 -61.52237 24920 ft 325 kts 66°
2026-04-25 21:56 46.86109 -61.49303 24921 ft 325 kts 66°
2026-04-25 21:57 46.87104 -61.46336 24920 ft 325 kts 66°
2026-04-25 21:57 46.88103 -61.43360 24921 ft 325 kts 66°
2026-04-25 21:57 46.89095 -61.40398 24920 ft 325 kts 66°
2026-04-25 21:57 46.90080 -61.37454 24921 ft 325 kts 66°
2026-04-25 21:58 46.91068 -61.34494 24921 ft 325 kts 67°
2026-04-25 21:58 46.92063 -61.31514 24918 ft 325 kts 67°
2026-04-25 21:58 46.93053 -61.28545 24918 ft 325 kts 67°
2026-04-25 21:58 46.94042 -61.25573 24919 ft 325 kts 67°
2026-04-25 21:59 46.95034 -61.22590 24919 ft 325 kts 67°
2026-04-25 21:59 46.96013 -61.19644 24919 ft 326 kts 67°
2026-04-25 21:59 46.97009 -61.16639 24919 ft 326 kts 67°
2026-04-25 22:00 46.98980 -61.10680 24918 ft 327 kts 66°
2026-04-25 22:00 46.99966 -61.07695 24919 ft 327 kts 65°
2026-04-25 22:00 47.00964 -61.04676 24919 ft 328 kts 65°
2026-04-25 22:00 47.01958 -61.01664 24919 ft 328 kts 65°
2026-04-25 22:01 47.02945 -60.98668 24919 ft 329 kts 64°
2026-04-25 22:01 47.03948 -60.95620 24919 ft 330 kts 64°
2026-04-25 22:01 47.04946 -60.92587 24912 ft 331 kts 64°
2026-04-25 22:01 47.05602 -60.90594 24903 ft 331 kts 64°
2026-04-25 22:02 47.06941 -60.86520 24888 ft 332 kts 64°
2026-04-25 22:02 47.07949 -60.83442 24878 ft 333 kts 64°
2026-04-25 22:02 47.08944 -60.80400 24871 ft 333 kts 64°
2026-04-25 22:02 47.09934 -60.77371 24865 ft 333 kts 64°
2026-04-25 22:03 47.10935 -60.74306 24857 ft 333 kts 64°
2026-04-25 22:03 47.11941 -60.71219 24856 ft 333 kts 64°
2026-04-25 22:03 47.12932 -60.68175 24855 ft 333 kts 64°
2026-04-25 22:03 47.13934 -60.65096 24853 ft 333 kts 64°
2026-04-25 22:04 47.14935 -60.62014 24850 ft 333 kts 64°
2026-04-25 22:04 47.15921 -60.58975 24843 ft 333 kts 64°
2026-04-25 22:04 47.16917 -60.55901 24836 ft 333 kts 64°
2026-04-25 22:04 47.17919 -60.52805 24827 ft 334 kts 64°
2026-04-25 22:05 47.18912 -60.49736 24815 ft 334 kts 64°
2026-04-25 22:05 47.19908 -60.46652 24802 ft 334 kts 64°
2026-04-25 22:05 47.20900 -60.43576 24800 ft 334 kts 64°
2026-04-25 22:05 47.21891 -60.40500 24800 ft 334 kts 64°
2026-04-25 22:06 47.22881 -60.37424 24800 ft 334 kts 64°
2026-04-25 22:06 47.23871 -60.34342 24799 ft 334 kts 65°
2026-04-25 22:06 47.24868 -60.31235 24796 ft 333 kts 65°
2026-04-25 22:06 47.25852 -60.28166 24796 ft 333 kts 65°
2026-04-25 22:07 47.26843 -60.25071 24796 ft 333 kts 65°
2026-04-25 22:07 47.27508 -60.22994 24796 ft 333 kts 65°
2026-04-25 22:07 47.28822 -60.18880 24796 ft 332 kts 65°
2026-04-25 22:07 47.29801 -60.15810 24796 ft 332 kts 65°
2026-04-25 22:08 47.30783 -60.12731 24797 ft 332 kts 65°
2026-04-25 22:08 47.31759 -60.09664 24797 ft 332 kts 65°
2026-04-25 22:08 47.32743 -60.06565 24797 ft 332 kts 65°
2026-04-25 22:08 47.33717 -60.03498 24797 ft 332 kts 65°
2026-04-25 22:09 47.34687 -60.00441 24798 ft 332 kts 65°
2026-04-25 22:09 47.35675 -59.97324 24797 ft 332 kts 65°
2026-04-25 22:09 47.36640 -59.94270 24798 ft 332 kts 65°
2026-04-25 22:09 47.37619 -59.91170 24798 ft 332 kts 65°
2026-04-25 22:10 47.38588 -59.88101 24798 ft 332 kts 65°
2026-04-25 22:10 47.39564 -59.85004 24798 ft 332 kts 65°
2026-04-25 22:10 47.40546 -59.81884 24799 ft 332 kts 65°
2026-04-25 22:10 47.41516 -59.78801 24799 ft 332 kts 65°
2026-04-25 22:11 47.42480 -59.75732 24799 ft 332 kts 65°
2026-04-25 22:11 47.43458 -59.72613 24799 ft 332 kts 65°
2026-04-25 22:11 47.44427 -59.69517 24799 ft 332 kts 65°
2026-04-25 22:11 47.45404 -59.66396 24800 ft 333 kts 65°
2026-04-25 22:12 47.46375 -59.63290 24799 ft 333 kts 65°
2026-04-25 22:12 47.47344 -59.60183 24800 ft 333 kts 65°
2026-04-25 22:12 47.48309 -59.57087 24800 ft 333 kts 65°
2026-04-25 22:12 47.48944 -59.55047 24800 ft 333 kts 65°
2026-04-25 22:13 47.50236 -59.50894 24800 ft 333 kts 65°
2026-04-25 22:13 47.51203 -59.47780 24801 ft 333 kts 65°
2026-04-25 22:13 47.52158 -59.44702 24801 ft 333 kts 65°
2026-04-25 22:13 47.53131 -59.41562 24801 ft 333 kts 65°
2026-04-25 22:14 47.54097 -59.38440 24801 ft 333 kts 65°
2026-04-25 22:14 47.55060 -59.35325 24801 ft 333 kts 65°
2026-04-25 22:14 47.56017 -59.32223 24797 ft 333 kts 66°
2026-04-25 22:14 47.56953 -59.29079 24787 ft 333 kts 71°
2026-04-25 22:15 47.57487 -59.25744 24813 ft 331 kts 79°
2026-04-25 22:15 47.57798 -59.22394 24805 ft 330 kts 88°
2026-04-25 22:15 47.57885 -59.18986 24809 ft 329 kts 92°
2026-04-25 22:16 47.57853 -59.12227 24807 ft 329 kts 94°
2026-04-25 22:16 47.57816 -59.08845 24807 ft 329 kts 94°
2026-04-25 22:16 47.57777 -59.05450 24807 ft 329 kts 94°
2026-04-25 22:16 47.57738 -59.02089 24807 ft 329 kts 93°
2026-04-25 22:17 47.57695 -58.98691 24807 ft 329 kts 93°
2026-04-25 22:17 47.57653 -58.95311 24807 ft 329 kts 92°
2026-04-25 22:17 47.57611 -58.91917 24807 ft 330 kts 92°
2026-04-25 22:17 47.57568 -58.88519 24808 ft 330 kts 92°
2026-04-25 22:18 47.57523 -58.85122 24808 ft 331 kts 92°
2026-04-25 22:18 47.57478 -58.81750 24808 ft 331 kts 91°
2026-04-25 22:18 47.57432 -58.78303 24808 ft 331 kts 91°
2026-04-25 22:18 47.57387 -58.74914 24805 ft 332 kts 91°
2026-04-25 22:19 47.57339 -58.71479 24802 ft 332 kts 91°
2026-04-25 22:19 47.57290 -58.68074 24798 ft 333 kts 91°
2026-04-25 22:19 47.57241 -58.64684 24795 ft 333 kts 91°
2026-04-25 22:19 47.57189 -58.61259 24791 ft 333 kts 91°
2026-04-25 22:20 47.57136 -58.57837 24787 ft 333 kts 91°
2026-04-25 22:20 47.57082 -58.54396 24783 ft 333 kts 91°
2026-04-25 22:20 47.57027 -58.50937 24777 ft 334 kts 91°
2026-04-25 22:20 47.56972 -58.47536 24769 ft 334 kts 91°
2026-04-25 22:21 47.56915 -58.44116 24761 ft 334 kts 91°
2026-04-25 22:21 47.56857 -58.40679 24753 ft 334 kts 91°
2026-04-25 22:21 47.56798 -58.37236 24745 ft 334 kts 91°
2026-04-25 22:21 47.56737 -58.33801 24735 ft 335 kts 92°
2026-04-25 22:22 47.56676 -58.30307 24724 ft 334 kts 92°
2026-04-25 22:22 47.56615 -58.26907 24723 ft 334 kts 92°
2026-04-25 22:22 47.56551 -58.23469 24723 ft 334 kts 92°
2026-04-25 22:22 47.56487 -58.19983 24723 ft 334 kts 92°
2026-04-25 22:23 47.56422 -58.16593 24724 ft 333 kts 92°
2026-04-25 22:23 47.56356 -58.13173 24724 ft 333 kts 92°
2026-04-25 22:23 47.56289 -58.09714 24724 ft 333 kts 92°
2026-04-25 22:23 47.56220 -58.06239 24725 ft 333 kts 92°
2026-04-25 22:24 47.56151 -58.02864 24724 ft 333 kts 92°
2026-04-25 22:24 47.56083 -57.99521 24725 ft 333 kts 92°
2026-04-25 22:24 47.56018 -57.96365 24725 ft 333 kts 92°
2026-04-25 22:24 47.55963 -57.93763 24725 ft 333 kts 92°
2026-04-25 22:25 47.55891 -57.90385 24725 ft 333 kts 92°
2026-04-25 22:25 47.55817 -57.86945 24725 ft 333 kts 92°
2026-04-25 22:25 47.55742 -57.83522 24726 ft 333 kts 92°
2026-04-25 22:25 47.55667 -57.80092 24715 ft 333 kts 92°
2026-04-25 22:26 47.55590 -57.76680 24698 ft 334 kts 92°
2026-04-25 22:26 47.55511 -57.73192 24679 ft 334 kts 92°
2026-04-25 22:26 47.55431 -57.69741 24661 ft 335 kts 92°
2026-04-25 22:26 47.55350 -57.66277 24642 ft 335 kts 92°
2026-04-25 22:27 47.55268 -57.62792 24622 ft 335 kts 92°
2026-04-25 22:27 47.55185 -57.59356 24604 ft 336 kts 92°
2026-04-25 22:27 47.55102 -57.55924 24592 ft 336 kts 92°
2026-04-25 22:27 47.55017 -57.52463 24587 ft 335 kts 92°
2026-04-25 22:28 47.54934 -57.49124 24582 ft 335 kts 92°
2026-04-25 22:28 47.54847 -57.45638 24578 ft 335 kts 92°
2026-04-25 22:28 47.54760 -57.42214 24573 ft 335 kts 92°
2026-04-25 22:28 47.54671 -57.38756 24569 ft 335 kts 92°
2026-04-25 22:29 47.54581 -57.35306 24565 ft 335 kts 92°
2026-04-25 22:29 47.54491 -57.31889 24558 ft 334 kts 93°